Location: Unspecified
(0.0000°N, 0.0000°E)
Time: 03:00:22
(UTC+00:00)

ARIANE 6 FM1 Upper Stage - Pass Details

Date: 04 March 2026
Orbit: 523 x 606 km, 62.0° (Epoch: 16 March)

Event Time Altitude Azimuth Distance (km) Brightness Sun altitude
Exits shadow 04:10:39 10° 168° (SSE) 1,905 5.5 -30.1°
Maximum altitude 04:14:02 23° 115° (ESE) 1,261 5.0 -29.2°
Drops below altitude 10° 04:17:22 10° 63° (ENE) 1,868 6.0 -28.4°
Sets 04:19:56 0° 48° (NE) 2,745 6.7 -27.8°
